Wind_Speed
80 81 81 78 73 67 63 61 62 62 57 52 53 51 53 48 45 38 35 34 35 39 43 46 48 54 61 63 61 64 64 62 58 61 61 62 63 65 63 65 62 63 58
77 78 79 75 69 63 59 60 62 56 54 57 56 56 53 47 44 35 32 29 31 34 37 38 41 44 55 60 59 59 64 62 60 57 48 49 58 62 62 64 65 63 64
72 76 74 66 64 63 64 59 57 57 59 60 62 55 51 47 41 34 30 26 27 29 30 34 35 40 49 54 58 58 59 60 55 55 43 42 42 54 64 63 63 59 61
71 70 62 58 58 63 60 58 58 61 63 64 60 48 43 41 37 32 32 24 24 26 25 31 35 37 46 51 57 58 57 59 59 54 47 50 29 57 48 59 61 60 57
67 58 54 53 56 56 55 57 63 62 63 59 53 46 41 37 34 32 30 26 24 25 24 21 31 36 40 49 55 58 58 56 60 56 55 49 49 52 49 51 55 56 56
59 53 49 46 50 49 55 61 60 63 59 52 50 46 43 38 32 32 28 28 26 27 26 23 25 34 40 45 51 57 55 50 57 58 59 56 49 47 51 50 49 51 56
54 46 45 46 46 50 56 57 61 58 55 51 47 45 40 35 32 28 27 28 27 29 27 23 21 30 36 42 47 53 54 51 51 54 54 62 54 49 48 49 48 48 51
49 44 38 34 48 54 54 58 55 55 53 49 47 44 37 32 26 28 26 28 26 29 28 26 22 24 32 38 43 47 50 51 49 50 50 59 61 53 48 47 48 49 51
42 40 37 43 50 51 54 50 51 51 49 49 46 40 31 27 24 24 24 29 30 28 28 28 24 24 29 35 39 43 45 48 45 41 44 48 53 57 50 47 51 48 43
29 35 43 46 49 51 46 48 48 45 45 45 41 34 27 24 22 21 22 26 33 31 29 26 24 22 24 33 39 42 43 47 45 43 42 40 42 49 51 52 50 50 36
31 40 43 48 48 44 44 45 42 39 38 37 34 27 22 20 18 17 20 26 34 36 32 26 21 21 23 28 38 42 43 43 43 41 39 36 39 40 42 44 45 48 50
36 41 45 45 41 41 41 38 35 35 34 32 30 23 19 16 15 15 18 23 25 38 36 34 28 22 20 23 33 39 42 42 39 40 37 32 36 36 40 37 39 35 38
39 41 39 36 36 38 34 31 31 29 26 27 24 20 16 13 11 11 16 21 24 32 36 33 30 28 24 22 28 35 37 38 38 37 40 36 35 36 33 33 35 35 35
37 33 29 30 32 32 27 29 27 25 22 25 21 18 13 9 7 7 9 15 22 26 30 31 29 26 24 22 22 30 35 35 36 36 37 35 35 33 32 33 36 38 38
29 28 23 28 30 26 27 28 31 23 18 20 18 17 10 4 0 4 10 16 19 20 25 26 27 26 23 22 18 24 31 34 32 31 32 30 26 29 33 32 29 26 30
27 20 21 25 27 21 24 25 22 13 13 16 15 14 8 2 5 8 10 13 17 22 24 26 28 29 25 21 19 19 26 26 31 29 29 18 23 28 28 28 22 20 23
22 18 21 24 23 18 23 21 15 9 11 9 11 11 10 9 8 8 9 11 11 16 19 21 23 25 25 25 23 22 24 25 28 35 40 34 32 29 25 22 19 20 20
16 17 21 24 19 17 18 16 9 8 7 7 9 11 12 13 16 17 17 17 16 17 17 19 22 26 29 27 25 24 24 26 25 23 33 29 31 27 21 18 16 13 17
17 18 23 22 14 14 14 8 9 5 7 6 8 9 13 16 18 22 23 24 24 23 24 25 28 32 33 29 30 26 25 26 23 20 19 17 13 11 12 12 11 8 9
16 21 22 14 8 11 9 8 9 9 9 6 6 9 13 15 17 22 23 27 28 31 33 34 33 35 35 37 37 31 26 26 21 14 14 16 17 14 9 4 1 5 9
19 21 16 8 7 4 6 12 11 10 10 9 17 20 18 18 19 21 26 30 26 26 25 27 33 35 36 36 33 26 24 16 23 25 19 21 18 10 5 1 5 10 16
13 14 6 5 3 6 11 13 17 22 19 22 26 26 25 24 25 27 32 29 23 26 31 33 21 22 30 31 29 28 23 21 27 24 17 12 8 4 1 6 10 15 21
9 2 8 2 6 17 16 21 23 24 23 31 38 39 39 41 37 32 31 31 25 28 28 28 37 34 26 26 25 22 25 22 19 16 15 9 4 3 6 14 21 23 26
2 10 8 10 26 25 20 23 27 28 27 34 37 40 40 41 38 40 41 42 39 36 33 39 35 31 25 25 24 21 18 15 13 11 7 2 6 10 14 19 23 27 31
5 12 8 21 30 27 25 29 31 33 35 35 33 34 32 32 33 33 35 35 36 37 37 34 28 25 23 21 19 17 14 12 8 4 4 8 12 15 19 25 28 30 28
16 16 9 29 31 27 27 25 31 31 30 28 29 29 28 26 25 26 31 34 33 32 28 28 26 22 18 17 13 12 7 2 2 4 8 14 19 21 24 21 17 15 13
Wind_Direction
306 306 305 309 308 306 302 300 300 300 301 302 302 299 296 290 285 280 272 264 259 253 240 238 231 234 232 231 231 229 228 227 229 229 228 230 231 232 234 237 241 244 243
305 305 308 308 306 304 300 299 300 301 304 309 305 303 298 293 288 284 278 264 254 249 241 234 228 229 230 229 229 228 228 228 228 230 229 231 232 233 233 237 241 245 248
306 307 306 304 305 298 299 303 303 305 308 308 306 301 298 294 289 283 278 271 257 248 241 235 228 226 226 228 227 227 224 224 224 224 221 230 237 236 233 234 239 244 249
306 306 304 302 298 298 306 301 301 307 307 306 302 304 300 297 295 282 274 266 254 252 245 237 230 225 223 224 224 225 224 224 222 222 214 223 199 240 234 238 238 242 249
307 302 299 294 292 300 296 294 300 303 305 304 309 308 302 298 292 283 269 261 243 247 248 244 228 222 223 225 223 222 224 226 223 223 219 219 224 231 238 242 242 244 249
304 295 291 291 289 289 292 296 300 305 305 311 310 307 304 299 289 278 264 253 236 234 244 246 232 222 216 221 220 220 226 226 223 222 222 220 223 228 234 241 245 247 248
296 291 287 289 283 287 297 303 304 305 309 309 306 302 299 294 286 269 257 242 232 230 237 247 243 222 219 217 217 219 224 224 222 223 224 221 222 228 233 236 241 244 248
294 290 289 276 286 295 301 304 306 308 309 307 307 306 298 290 284 268 255 240 225 224 231 233 237 228 219 217 217 218 219 222 226 226 226 225 224 225 232 239 239 242 249
291 293 283 285 292 301 305 305 307 308 307 309 309 305 297 288 277 266 257 234 223 218 223 224 226 234 222 218 216 216 217 221 224 222 223 222 224 226 229 234 238 243 251
297 280 288 296 302 303 305 308 308 308 310 311 308 304 293 286 274 259 253 232 219 221 218 219 222 229 228 218 216 215 215 219 220 223 221 223 223 222 227 230 234 237 232
280 285 293 296 300 305 309 309 308 310 305 310 313 312 299 288 273 252 240 223 218 219 219 220 224 217 229 220 213 214 216 216 219 219 219 218 214 213 221 226 233 235 231
276 288 294 298 304 311 310 307 307 301 306 312 317 316 309 289 273 253 235 223 219 219 219 222 223 215 225 221 214 211 213 215 215 214 210 209 215 221 225 222 227 228 235
290 296 301 304 311 309 307 304 301 311 312 312 319 324 320 296 273 242 225 218 216 211 214 217 217 223 226 220 215 211 211 214 212 210 209 208 212 219 224 227 231 235 232
299 301 301 306 308 307 299 303 308 312 307 313 329 334 332 307 273 236 212 203 203 201 207 204 210 213 217 222 217 210 208 207 205 205 206 205 211 220 223 228 236 238 235
298 296 299 310 310 302 293 315 310 301 300 321 341 341 336 330 43 163 184 191 191 199 203 205 203 204 211 225 224 205 202 200 198 200 196 202 216 227 230 234 240 246 246
294 292 301 314 315 297 307 320 318 308 311 328 358 8 14 55 132 138 144 172 192 197 200 207 210 209 207 216 210 194 190 191 195 185 179 206 223 226 232 233 238 251 252
289 295 300 310 319 306 316 320 338 338 325 346 4 38 65 78 93 110 131 144 161 173 181 186 192 194 188 185 175 174 174 180 183 182 174 201 210 230 240 245 249 249 252
283 289 306 316 316 309 321 343 30 5 11 29 40 75 84 86 89 92 102 113 133 148 162 165 167 166 161 159 156 155 153 156 166 161 190 201 221 235 248 252 250 243 243
285 303 305 308 296 309 339 4 9 25 77 52 51 92 88 84 91 95 93 100 106 112 122 133 146 150 143 139 136 136 152 158 153 166 178 191 200 213 218 195 188 217 261
287 305 305 291 279 321 347 31 63 69 73 58 88 105 93 92 104 105 101 99 98 103 112 119 124 127 128 133 137 135 154 154 139 131 142 150 154 149 142 149 268 293 294
284 305 296 224 281 339 67 87 76 68 83 104 101 98 90 98 119 122 114 115 107 107 120 122 131 133 136 148 151 146 146 151 138 139 146 133 128 119 93 64 321 318 306
307 306 194 191 359 127 97 94 96 94 86 92 97 99 102 111 115 118 120 117 107 110 133 133 143 141 144 149 158 157 161 159 141 137 135 137 124 108 324 298 298 306 314
312 198 157 170 101 116 107 116 112 105 102 92 101 96 97 96 96 106 118 119 109 112 125 135 125 123 121 121 126 139 137 124 112 112 113 126 147 248 277 319 323 315 300
298 162 186 101 124 121 109 121 112 106 104 110 107 98 98 98 96 98 104 107 105 106 122 126 118 114 120 127 114 121 132 122 125 123 119 105 339 317 303 299 299 302 305
183 168 185 132 124 125 126 121 116 112 109 112 114 106 101 105 104 107 110 109 111 112 116 126 113 109 107 109 112 125 125 123 106 64 354 319 308 299 305 312 313 308 305
167 177 118 141 123 129 137 134 128 122 118 117 118 118 109 106 102 108 109 115 115 113 114 119 123 124 123 125 115 124 130 112 302 320 303 299 307 306 312 313 309 308 333
Height
10758 10747 10741 10735 10729 10725 10717 10713 10709 10704 10701 10699 10694 10688 10682 10679 10675 10674 10674 10675 10676 10677 10682 10688 10696 10700 10708 10718 10728 10739 10748 10758 10765 10774 10783 10790 10796 10804 10808 10813 10817 10820 10826
10748 10736 10726 10721 10714 10710 10704 10700 10697 10692 10688 10684 10679 10673 10667 10663 10659 10660 10661 10662 10665 10666 10670 10677 10685 10689 10697 10707 10718 10727 10737 10748 10757 10766 10776 10783 10790 10795 10801 10804 10808 10811 10816
10736 10725 10717 10710 10702 10695 10693 10689 10685 10680 10675 10670 10664 10660 10653 10648 10647 10647 10649 10652 10653 10656 10661 10667 10674 10678 10686 10696 10707 10716 10726 10736 10746 10758 10768 10779 10784 10785 10789 10793 10798 10803 10806
10726 10716 10706 10700 10692 10684 10680 10678 10675 10670 10664 10657 10650 10645 10639 10636 10635 10636 10638 10642 10645 10648 10653 10659 10664 10671 10676 10684 10694 10706 10715 10725 10734 10746 10760 10765 10791 10770 10780 10783 10789 10795 10798
10714 10705 10697 10690 10683 10677 10674 10670 10666 10661 10653 10645 10634 10630 10627 10626 10625 10626 10629 10633 10638 10641 10645 10652 10657 10663 10669 10675 10684 10695 10706 10715 10725 10736 10747 10755 10765 10769 10773 10775 10780 10786 10788
10700 10693 10687 10682 10675 10672 10667 10664 10656 10649 10640 10632 10625 10619 10616 10615 10616 10616 10620 10625 10630 10635 10639 10645 10649 10655 10660 10667 10676 10686 10697 10707 10716 10726 10735 10742 10749 10756 10761 10766 10773 10778 10779
10689 10684 10679 10675 10669 10663 10659 10652 10645 10637 10628 10622 10617 10613 10609 10606 10605 10607 10610 10616 10622 10630 10634 10638 10643 10648 10654 10661 10669 10679 10690 10699 10708 10717 10724 10732 10741 10746 10752 10758 10765 10768 10771
10679 10676 10676 10668 10662 10655 10649 10641 10633 10626 10618 10613 10609 10603 10600 10598 10597 10596 10600 10606 10616 10622 10628 10633 10637 10641 10647 10654 10662 10672 10682 10691 10701 10710 10716 10725 10733 10740 10746 10752 10757 10761 10765
10669 10666 10661 10659 10654 10646 10639 10631 10624 10617 10610 10604 10598 10594 10591 10589 10588 10589 10592 10597 10606 10616 10622 10627 10632 10636 10641 10647 10655 10665 10674 10684 10693 10701 10709 10717 10726 10733 10740 10745 10748 10755 10761
10662 10658 10653 10647 10641 10636 10630 10623 10615 10609 10603 10597 10591 10586 10583 10581 10581 10582 10585 10589 10598 10608 10616 10621 10627 10631 10635 10641 10648 10657 10667 10677 10686 10694 10702 10712 10717 10726 10731 10736 10741 10748 10755
10651 10647 10644 10640 10635 10628 10621 10614 10608 10603 10598 10592 10586 10581 10577 10574 10574 10575 10578 10583 10591 10600 10609 10616 10622 10627 10630 10635 10642 10651 10661 10671 10680 10689 10697 10705 10710 10716 10722 10728 10732 10738 10741
10645 10641 10637 10632 10626 10619 10614 10609 10605 10600 10593 10587 10582 10576 10572 10570 10570 10571 10573 10578 10584 10594 10602 10610 10617 10623 10627 10632 10638 10645 10654 10665 10674 10684 10692 10697 10704 10710 10715 10720 10723 10729 10732
10637 10632 10627 10622 10619 10615 10609 10605 10601 10594 10589 10584 10579 10573 10570 10568 10567 10569 10571 10574 10580 10588 10595 10604 10612 10619 10624 10629 10634 10641 10650 10660 10669 10677 10685 10691 10698 10704 10709 10713 10718 10721 10726
10627 10623 10620 10618 10616 10610 10605 10601 10595 10591 10586 10582 10577 10572 10568 10567 10566 10567 10570 10574 10579 10585 10591 10601 10608 10615 10620 10626 10631 10638 10646 10655 10664 10671 10679 10688 10695 10698 10703 10707 10710 10715 10718
10621 10619 10617 10615 10610 10604 10600 10597 10591 10587 10584 10581 10578 10573 10569 10568 10566 10566 10568 10572 10578 10583 10590 10597 10604 10611 10618 10623 10629 10634 10642 10651 10661 10670 10679 10688 10691 10695 10699 10704 10707 10710 10711
10615 10614 10612 10609 10604 10600 10596 10592 10587 10585 10584 10582 10579 10574 10571 10569 10567 10567 10568 10572 10576 10581 10587 10593 10600 10607 10615 10621 10627 10633 10641 10649 10657 10667 10677 10683 10685 10689 10695 10701 10705 10706 10707
10610 10608 10608 10605 10599 10596 10594 10590 10586 10585 10584 10582 10580 10577 10573 10571 10569 10568 10569 10570 10574 10578 10583 10589 10596 10604 10611 10620 10628 10634 10641 10649 10656 10665 10672 10673 10681 10686 10693 10698 10700 10701 10702
10605 10605 10603 10599 10597 10595 10593 10589 10587 10586 10585 10583 10581 10579 10577 10575 10573 10572 10572 10572 10575 10578 10582 10588 10594 10603 10611 10620 10629 10637 10644 10651 10657 10664 10673 10678 10683 10688 10693 10694 10695 10696 10697
10601 10601 10599 10597 10595 10594 10592 10591 10588 10587 10586 10585 10583 10582 10581 10580 10579 10578 10579 10578 10579 10583 10586 10590 10598 10606 10615 10624 10633 10640 10647 10654 10660 10666 10672 10678 10683 10686 10689 10690 10693 10695 10696
10598 10598 10596 10594 10594 10594 10593 10592 10589 10588 10587 10586 10585 10585 10585 10585 10585 10585 10586 10586 10589 10591 10596 10600 10606 10613 10622 10629 10636 10643 10648 10655 10661 10665 10671 10676 10681 10685 10687 10690 10692 10693 10693
10596 10594 10592 10592 10594 10594 10594 10593 10592 10590 10588 10588 10588 10588 10588 10587 10590 10593 10593 10595 10598 10602 10606 10610 10616 10621 10628 10634 10640 10646 10652 10656 10663 10669 10677 10679 10682 10685 10687 10690 10691 10691 10689
10593 10590 10589 10592 10594 10594 10595 10595 10596 10595 10593 10594 10594 10592 10591 10592 10595 10599 10600 10605 10608 10612 10615 10619 10623 10630 10634 10640 10645 10650 10656 10662 10667 10672 10677 10679 10682 10685 10687 10688 10688 10687 10686
10590 10589 10590 10592 10594 10596 10597 10598 10600 10600 10600 10601 10601 10600 10600 10601 10603 10604 10607 10611 10616 10621 10624 10629 10634 10640 10645 10649 10652 10658 10664 10668 10670 10673 10675 10679 10682 10683 10684 10684 10682 10680 10679
10589 10590 10592 10595 10596 10598 10601 10603 10604 10606 10606 10607 10609 10609 10610 10611 10613 10615 10617 10620 10625 10629 10633 10639 10644 10649 10654 10657 10660 10664 10667 10670 10672 10674 10677 10679 10680 10680 10680 10680 10679 10677 10673
10589 10592 10593 10597 10596 10601 10605 10609 10610 10612 10613 10614 10616 10618 10620 10621 10623 10626 10629 10631 10634 10638 10641 10646 10651 10655 10659 10662 10665 10667 10669 10671 10673 10674 10676 10677 10678 10678 10677 10675 10673 10669 10664
10589 10593 10596 10600 10600 10605 10609 10613 10615 10616 10619 10621 10623 10626 10628 10630 10634 10636 10638 10641 10643 10645 10649 10651 10655 10659 10663 10666 10668 10669 10670 10671 10673 10674 10676 10675 10674 10674 10672 10670 10666 10663 10660